Flag Weather past 2 weeks in Kreuzlingen, Thurgau, Switzerland

Now
37 °F

Clear.


Feels Like: 35 °F
Forecast: 36 / 51 °F
Wind: 3 mph from Northeast

Location: Konstanz

Current Time: Nov 28, 2014 at 7:25:40 PM

Latest Report: Nov 28, 2014 at 7:00 PM


Visibility: 13 mi

Pressure: 29.84 "Hg

Humidity: 91%

Dew point: 35 °F

Location of KreuzlingenLocation

Historic Weather in Kreuzlingen — Graph

°F

Kreuzlingen temperature yesterday

Maximum temperature yesterday: 45 °F (at 12:00 AM)
Minimum temperature yesterday: 42 °F (at 11:00 PM)
Average temperature yesterday: 43 °F

Past Weeks' High & Low Weather Summary

 TemperatureHumidityPressure
High54 °F (Nov 16, 3:00 PM)100% (Nov 20, 12:00 AM)30.32 "Hg (Nov 20, 12:00 AM)
Low36 °F (Nov 20, 7:00 AM)63% (Nov 16, 2:00 PM)29.55 "Hg (Nov 15, 10:00 PM)
Average44 °F92%29.98 "Hg
* Reported Nov 13 6:00 PM — Nov 28 6:00 PM, Kreuzlingen, Weather by CustomWeather, © 2014

Note: Actual official high and low records may vary slightly from our data, if they occured in-between our weather recording intervals... More about our weather records

Advertising

Kreuzlingen weather history for previous 24 hours

 ConditionsComfort  
Time TempWeatherWind HumidityBarometerVisibility
6:00 PM
Nov 28
38 °FClear.3 mph90%29.82 "Hg14 mi
5:00 PM40 °FPassing clouds.3 mph87%29.80 "Hg16 mi
4:00 PM44 °FPartly sunny.2 mph79%29.77 "Hg12 mi
3:00 PM48 °FScattered clouds.2 mph71%29.75 "Hg12 mi
2:00 PM48 °FScattered clouds.1 mph69%29.76 "Hg12 mi
1:00 PM46 °FPartly sunny.1 mph71%29.78 "Hg12 mi
12:00 PM43 °FPartly sunny.1 mph81%29.81 "Hg11 mi
11:00 AM41 °FLow clouds.2 mph86%29.83 "Hg16 mi
10:00 AM41 °FLow clouds.1 mph90%29.83 "Hg16 mi
9:00 AM40 °FLow clouds.1 mph93%29.83 "Hg12 mi
8:00 AM40 °FLow clouds.1 mph92%29.83 "Hg9 mi
7:00 AM40 °FLow clouds.2 mph93%29.82 "Hg6 mi
6:00 AM40 °FLow clouds.2 mph97%29.82 "Hg4 mi
5:00 AM40 °FLow clouds.2 mph97%29.82 "Hg6 mi
4:00 AM41 °FLow clouds.2 mph95%29.83 "Hg8 mi
3:00 AM41 °FLow clouds.2 mph94%29.84 "Hg8 mi
2:00 AM42 °FLow clouds.1 mph96%29.83 "Hg8 mi
1:00 AM41 °FLow clouds.2 mph95%29.84 "Hg7 mi
12:00 AM42 °FLow clouds.2 mph95%29.85 "Hg7 mi
11:00 PM
Nov 27
42 °FLow clouds.2 mph95%29.84 "Hg5 mi
10:00 PM42 °FLow clouds.2 mph94%29.84 "Hg6 mi
9:00 PM43 °FLow clouds.2 mph93%29.84 "Hg9 mi
8:00 PM44 °FLow clouds.1 mph92%29.83 "Hg9 mi
7:00 PM44 °FLow clouds.2 mph92%29.83 "Hg9 mi
Weather by CustomWeather, © 2014

See weather overviewHow to use our weather pages